Location: Newark
(43.4306°N, 0.3089°E)
Time: 07:48:20
(UTC+00:00)

Explorer 7 - All Passes

Search period start: 24 August 2019 00:00
Search period end: 03 September 2019 00:00
Orbit: 485 x 680 km, 50.3° (Epoch: 23 August)

Date Brightness Start Highest point End Pass type
(mag) Time Alt. Az. Time Alt. Az. Time Alt. Az.
24 Aug - 07:56:15 10° SSW 08:00:32 31° SE 08:04:44 10° ENE daylight
24 Aug - 09:36:08 10° WSW 09:40:58 69° NNW 09:45:35 10° ENE daylight
24 Aug - 11:17:46 10° WNW 11:22:06 35° N 11:26:14 10° ENE daylight
24 Aug - 12:59:05 10° WNW 13:03:26 42° NNE 13:07:30 10° E daylight
24 Aug - 14:39:51 10° WNW 14:44:12 64° SW 14:48:15 10° SE daylight
24 Aug - 16:22:46 10° WSW 16:23:56 11° SW 16:25:06 10° SW daylight
25 Aug - 08:00:46 10° SW 08:05:27 47° SE 08:10:01 10° ENE daylight
25 Aug - 09:41:23 10° W 09:46:07 53° NNW 09:50:39 10° ENE daylight
25 Aug - 11:23:04 10° WNW 11:27:23 34° N 11:31:28 10° ENE daylight
25 Aug - 13:04:10 10° WNW 13:08:37 52° NNE 13:12:47 10° E daylight
25 Aug - 14:45:02 10° WNW 14:49:09 41° SW 14:53:00 10° SSE daylight
26 Aug - 06:27:33 10° SSE 06:30:24 15° SE 06:33:13 10° E daylight
26 Aug - 08:05:34 10° SW 08:10:26 70° SE 08:15:10 10° ENE daylight
26 Aug - 09:46:41 10° W 09:51:18 43° NNW 09:55:43 10° ENE daylight
26 Aug - 11:28:19 10° WNW 11:32:39 35° N 11:36:44 10° ENE daylight
26 Aug - 13:09:14 10° WNW 13:13:46 70° NNE 13:18:00 10° ESE daylight
26 Aug - 14:50:23 10° WNW 14:54:01 26° SW 14:57:28 10° SSE daylight
27 Aug - 06:31:18 10° S 06:35:12 24° SE 06:39:04 10° E daylight
27 Aug - 08:10:34 10° WSW 08:15:29 85° NNW 08:20:15 10° ENE daylight
27 Aug - 09:52:02 10° WNW 09:56:32 38° N 10:00:50 10° ENE daylight
27 Aug - 11:33:30 10° WNW 11:37:54 39° N 11:42:03 10° E daylight
27 Aug - 13:14:18 10° WNW 13:18:51 84° SSW 13:23:05 10° ESE daylight
27 Aug - 14:56:05 10° W 14:58:48 16° SW 15:01:26 10° S daylight
28 Aug - 06:35:35 10° SSW 06:40:04 36° SE 06:44:29 10° ENE daylight
28 Aug - 08:15:43 10° WSW 08:20:35 64° NNW 08:25:18 10° ENE daylight
28 Aug - 09:57:22 10° WNW 10:01:48 35° N 10:06:02 10° ENE daylight
28 Aug - 11:38:37 10° WNW 11:43:08 46° NNE 11:47:22 10° E daylight
28 Aug - 13:19:25 10° WNW 13:23:51 56° SW 13:28:00 10° SE daylight
29 Aug - 05:03:47 10° SE 05:05:09 11° SE 05:06:32 10° ESE daylight
29 Aug - 06:40:12 10° SW 06:45:00 54° SE 06:49:43 10° ENE daylight
29 Aug - 08:20:59 10° W 08:25:44 50° NNW 08:30:21 10° ENE daylight
29 Aug - 10:02:39 10° WNW 10:07:04 35° N 10:11:17 10° ENE daylight
29 Aug - 11:43:41 10° WNW 11:48:18 58° NNE 11:52:38 10° ESE daylight
29 Aug - 13:24:38 10° WNW 13:28:46 36° SW 13:32:40 10° SSE daylight
30 Aug - 05:06:36 10° S 05:09:53 18° SE 05:13:12 10° E daylight
30 Aug - 06:45:04 10° SW 06:49:59 78° SSE 06:54:50 10° ENE daylight
30 Aug - 08:26:18 10° W 08:30:57 42° NNW 08:35:27 10° ENE daylight
30 Aug - 10:07:52 10° WNW 10:12:20 37° N 10:16:35 10° ENE daylight
30 Aug - 11:48:45 10° WNW 11:53:26 78° NNE 11:57:49 10° ESE daylight
30 Aug - 13:30:03 10° W 13:33:37 23° SW 13:37:00 10° S daylight
31 Aug - 05:10:34 10° SSW 05:14:42 28° SE 05:18:51 10° ENE daylight
31 Aug - 06:50:07 10° WSW 06:55:03 77° NNW 06:59:54 10° ENE daylight
31 Aug - 08:31:38 10° WNW 08:36:11 37° N 08:40:36 10° ENE daylight
31 Aug - 10:13:02 10° WNW 10:17:35 41° NNE 10:21:55 10° E daylight
31 Aug - 11:53:49 10° WNW 11:58:29 75° SSW 12:02:50 10° SE daylight
31 Aug - 13:35:54 10° W 13:38:22 15° SW 13:40:46 10° SSW daylight
01 Sep - 05:14:58 10° SSW 05:19:35 42° SE 05:24:11 10° ENE daylight
01 Sep - 06:55:19 10° WSW 07:00:11 59° NNW 07:04:57 10° ENE daylight
01 Sep - 08:36:57 10° WNW 08:41:27 36° N 08:45:48 10° ENE daylight
01 Sep - 10:18:07 10° WNW 10:22:48 50° NNE 10:27:13 10° E daylight
01 Sep - 11:58:58 10° WNW 12:03:28 50° SW 12:07:40 10° SE daylight
02 Sep - 03:42:21 10° SSE 03:44:37 13° SE 03:46:53 10° E visible
02 Sep - 05:19:41 10° SW 05:24:31 62° SE 05:29:22 10° ENE daylight
02 Sep - 07:00:36 10° W 07:05:21 47° NNW 07:10:01 10° ENE daylight
02 Sep - 08:42:13 10° WNW 08:46:44 36° N 08:51:04 10° ENE daylight
02 Sep - 10:23:11 10° WNW 10:27:57 64° NNE 10:32:27 10° ESE daylight
02 Sep - 12:04:13 10° WNW 12:08:21 32° SW 12:12:15 10° SSE daylight
